PST,Max TemperatureF,Mean TemperatureF,Min TemperatureF,Max Dew PointF,MeanDew PointF,Min DewpointF,Max Humidity, Mean Humidity, Min Humidity, Max Sea Level PressureIn, Mean Sea Level PressureIn, Min Sea Level PressureIn, Max VisibilityMiles, Mean VisibilityMiles, Min VisibilityMiles, Max Wind SpeedMPH, Mean Wind SpeedMPH, Max Gust SpeedMPH,PrecipitationIn, CloudCover, Events, WindDirDegrees
2014-2-1,48,39,28,36,32,26,89,77,52,30.22,30.15,30.10,10,10,10,10,2,,0.00,3,,87
2014-2-2,37,32,27,28,27,24,89,76,67,30.13,30.07,30.00,10,10,10,7,2,,0.00,8,,91
2014-2-3,35,32,30,30,29,27,92,85,78,30.25,30.11,30.04,10,6,1,17,4,,0.01,8,Snow,78
2014-2-4,30,28,25,28,20,7,92,70,46,30.53,30.37,30.26,10,9,2,14,5,,0.00,8,Snow,104
2014-2-5,25,22,19,6,2,-1,48,42,33,30.63,30.56,30.48,10,10,10,16,10,23,0.00,6,,121
2014-2-6,19,16,14,12,9,0,88,75,43,30.46,30.15,29.95,10,3,0,10,7,,0.17,8,Fog-Snow,101
2014-2-7,19,14,10,16,12,4,93,85,65,30.09,29.98,29.94,10,3,1,6,1,,0.36,8,Snow,190
2014-2-8,23,20,18,20,18,15,93,89,82,30.26,30.13,30.00,10,2,0,7,2,,0.54,8,Fog-Snow,97
2014-2-9,27,24,21,22,20,16,89,82,77,30.28,30.23,30.13,10,9,6,5,3,,0.00,8,,96
2014-2-10,33,28,24,25,23,21,92,85,72,30.32,30.26,30.16,10,8,4,5,1,,0.01,7,,37
2014-2-11,37,31,25,34,31,23,100,93,85,30.19,30.07,29.85,9,4,1,7,1,,0.17,7,Rain,133
2014-2-12,52,43,34,42,36,33,100,94,66,29.91,29.81,29.71,10,4,0,8,2,,0.05,7,Fog-Rain,233
2014-2-13,55,45,35,40,36,34,100,79,49,30.13,29.97,29.83,10,7,0,23,6,29,0.12,3,Fog-Rain,352
2014-2-14,53,45,37,44,39,35,100,91,61,30.00,29.87,29.78,10,8,2,17,4,23,0.68,6,Rain,280
2014-2-15,46,42,37,41,38,33,100,93,65,29.98,29.68,29.51,10,7,1,21,1,29,0.49,7,Rain,309
2014-2-16,51,44,37,37,35,32,86,71,52,30.06,29.93,29.76,10,10,9,26,12,36,0.04,4,Rain,307
2014-2-17,55,46,37,44,37,33,89,71,42,30.02,29.85,29.73,10,10,10,33,10,48,0.05,5,Rain,308
2014-2-18,46,39,32,43,36,31,96,87,71,30.02,29.90,29.72,10,10,6,20,4,30,0.20,5,Rain,262
2014-2-19,50,42,35,36,34,32,93,79,52,30.20,30.10,29.98,10,10,8,24,7,31,0.03,5,Rain,303
2014-2-20,50,42,35,40,37,32,96,76,66,30.19,30.15,30.10,10,10,10,24,9,37,0.00,7,Rain,310
2014-2-21,52,48,39,36,33,30,70,60,48,30.21,30.19,30.16,10,10,10,24,16,34,0.00,3,,306
2014-2-22,48,40,33,32,30,28,85,64,44,30.19,30.13,30.06,10,10,10,21,5,25,0.00,3,,277
2014-2-23,52,43,34,35,32,29,85,66,48,30.06,30.01,29.93,10,10,10,14,3,,0.00,6,,71
2014-2-24,44,40,36,35,34,32,89,83,68,30.30,30.19,30.06,10,10,9,17,9,23,0.04,8,Rain,74
2014-2-25,39,38,36,32,31,29,86,78,73,30.39,30.32,30.27,10,10,5,12,5,,0.07,8,Rain,91
2014-2-26,43,39,35,32,30,28,82,70,58,30.26,30.09,29.88,10,10,10,9,3,,0.00,8,,79
2014-2-27,46,42,37,35,33,31,89,74,58,29.86,29.79,29.75,10,10,8,6,1,,0.00,8,,352
2014-2-28,50,42,34,37,35,32,93,76,54,29.76,29.68,29.59,10,9,6,10,1,,0.00,7,,104